This demonstration page uses our WeatherBlox Daily Observations layout. Learn more.

Left ArrowRight Arrow

44.31136, -96.79839

Hourly Observations for August 24, 2018

Temp ( °F °C ) Dew Point ( °F °C ) Humidity (%) Winds ( mph kmh ) Pressure ( in mb ) Visibility ( mi km ) Precip ( " mm )
12:56 am 00:56 Cloudy with Mist and Fog 67 19.4 66 18.9 97 97 S 14 22 29.74 1007 6 10 0.00 0.00
1:56 am 01:56 Cloudy with Mist and Fog 67 19.4 66 18.9 97 97 SSW 14 22 29.73 1007 6 10 0.00 0.00
2:56 am 02:56 Cloudy with Mist and Fog 68 20 66 18.9 93 93 S 16 26 29.70 1006 5 8 0.00 0.00
3:09 am 03:09 Cloudy with Nearby Thunderstorms 66 19 66 19 100 100 SE 14 22 29.62 1003 6 10 0.00 0.03
3:22 am 03:22 Mostly Cloudy with Nearby Thunderstorms 66 19 66 19 100 100 S 12 19 29.65 1004 6 10 0.00 0.03
3:38 am 03:38 Mostly Cloudy with Mist and Fog 66 19 66 19 100 100 S 14 22 29.65 1004 6 10 0.00 0.03
3:48 am 03:48 Cloudy with Mist and Fog 66 19 66 19 100 100 S 14 22 29.65 1004 5 8 0.00 0.03
3:56 am 03:56 Cloudy with Mist and Fog 68 20 66 18.9 93 93 S 15 24 29.68 1005 5 8 0.00 0.03
4:56 am 04:56 Cloudy with Mist and Fog 68 20 67 19.4 96 96 S 13 20 29.68 1005 5 8 0.00 0.00
5:56 am 05:56 Cloudy with Mist and Fog 68 20 66 18.9 93 93 SSW 7 11 29.70 1006 5 8 0.00 0.00
6:56 am 06:56 Cloudy with Mist and Fog 67 19.4 66 18.9 97 97 S 8 13 29.68 1005 3 5 0.00 0.00
7:56 am 07:56 Cloudy with Mist and Fog 67 19.4 66 18.9 97 97 WSW 9 15 29.71 1006 4 6 0.00 0.00
8:08 am 08:08 Cloudy with Mist and Fog 66 19 66 19 100 100 WSW 8 13 29.65 1004 4 6 0.00 0.00
8:18 am 08:18 Cloudy with Mist and Fog 66 19 64 18 94 94 WSW 6 9 29.65 1004 5 8 0.00 0.00
8:26 am 08:26 Mostly Cloudy with Mist and Fog 66 19 64 18 94 94 WSW 7 11 29.65 1004 5 8 0.00 0.00
8:56 am 08:56 Partly Cloudy 67 19.4 64 17.8 91 91 W 9 15 29.71 1006 7 11 0.00 0.00
9:56 am 09:56 Sunny 69 20.6 64 17.8 84 84 SW 3 6 29.70 1006 9 14 0.00 0.00
10:56 am 10:56 Sunny 73 22.8 62 16.7 69 69 VRB 5 7 29.72 1006 10 16 0.00 0.00
11:56 am 11:56 Mostly Sunny 72 22.2 62 16.7 71 71 SW 6 9 29.72 1006 10 16 0.00 0.00
12:56 pm 12:56 Cloudy 72 22.2 61 16.1 68 68 WSW 9 15 29.71 1006 10 16 0.00 0.00
1:56 pm 13:56 Cloudy 72 22.2 62 16.7 71 71 W 10 17 29.71 1006 10 16 0.00 0.00
2:56 pm 14:56 Mostly Cloudy 75 23.9 62 16.7 64 64 W 15 24 29.69 1005 10 16 0.00 0.00
3:56 pm 15:56 Cloudy 76 24.4 63 17.2 64 64 W 16 26 29.69 1005 10 16 0.00 0.00
4:56 pm 16:56 Mostly Cloudy 77 25 63 17.2 62 62 WNW 17 28 29.70 1006 10 16 0.00 0.00
5:56 pm 17:56 Cloudy 74 23.3 63 17.2 69 69 W 10 17 29.71 1006 10 16 0.00 0.00
6:56 pm 18:56 Sunny 73 22.8 63 17.2 71 71 WNW 8 13 29.72 1007 10 16 0.00 0.00
7:56 pm 19:56 Sunny 70 21.1 64 17.8 82 82 NW 6 9 29.75 1007 10 16 0.00 0.00
8:56 pm 20:56 Clear 67 19.4 63 17.2 87 87 Calm 29.78 1008 10 16 0.00 0.03
9:56 pm 21:56 Clear 65 18.3 62 16.7 90 90 Calm 29.80 1009 10 16 0.00 0.00
10:56 pm 22:56 Clear 63 17.2 61 16.1 93 93 Calm 29.81 1010 10 16 0.00 0.00
11:56 pm 23:56 Clear 60 15.6 59 15 96 96 Calm 29.83 1010 10 16 0.00 0.00

Powered by AerisWeather